Casper, WY

8:50 PM MST on December 12, 2017 (GMT -0700)
Natrona County International

Weather History for KCPR - November, 2012

Change the Weather History Date:

Monday, November 5, 2012

  Actual Average Record
Temperature  
Mean Temperature 48 °F 38 °F  
Max Temperature 65 °F 51 °F 71 °F (2009)
Min Temperature 31 °F 26 °F -9 °F (2003)
Degree Days  
Heating Degree Days 17 27  
Month to date heating degree days 98 130  
Since 1 July heating degree days 869 1029  
Cooling Degree Days 0 0  
Month to date cooling degree days 0 0  
Year to date cooling degree days 697 422  
Growing Degree Days 2 (Base 50)    
Moisture  
Dew Point 28 °F    
Average Humidity 51    
Maximum Humidity 78    
Minimum Humidity 24    
Precipitation  
Precipitation 0.00 in 0.03 in 0.33 in (1996)
Month to date precipitation 0.00 0.15  
Year to date precipitation 7.00 11.42  
Snow  
Snow 0.00 in 0.30 in - ()
Month to date snowfall 0.0 1.5  
Since 1 July snowfall 5.2 10.7  
Since 1 September snowfall 5.2 10.7  
Snow Depth 0.00 in    
Sea Level Pressure  
Sea Level Pressure 30.16 in    
Wind  
Wind Speed 14 mph (WSW)    
Max Wind Speed 24 mph    
Max Gust Speed 32 mph    
Visibility 10 miles    
Events      
T = Trace of Precipitation, MM = Missing Value Source: NWS Daily Summary

Daily Weather History Graph

Daily Weather History Graph

Search for Another Location

Airport or City:

Trip Planner

Search our weather history database for the weather conditions in past years. The results will help you decide how hot, cold, wet, or windy it might be!

Date:

Astronomy

Nov. 05, 2012 Rise Set
Actual Time 6:45 AM MST 4:52 PM MST
Civil Twilight 6:16 AM MST 5:22 PM MST
Nautical Twilight 5:42 AM MST 5:55 PM MST
Astronomical Twilight 5:09 AM MST 6:28 PM MST
Moon 10:33 PM MST (11/5) 12:07 PM MST (11/5)
Length of Visible Light 11h 06m
Length of Day
10h 06m
Waning Gibbous, 62% of the Moon is Illuminated
Nov 5
Waning Gibbous
Nov 6
Last Quarter
Nov 13
New
Nov 20
First Quarter
Nov 28
Full

Hourly Weather History & Observations

Time (MST) Temp. Windchill Dew Point Humidity Pressure Visibility Wind Dir Wind Speed Gust Speed Precip Events Conditions
12:53 AM 36.0 °F 29.6 °F 28.9 °F 76% 30.27 in 10.0 mi WSW 8.1 mph - N/A   Mostly Cloudy
1:53 AM 39.0 °F 32.3 °F 30.0 °F 70% 30.24 in 10.0 mi WSW 10.4 mph - N/A   Overcast
2:53 AM 39.2 °F 33.0 °F 28.4 °F 65% 30.27 in 10.0 mi WSW 9.2 mph - N/A   Clear
3:53 AM 41.0 °F 33.1 °F 28.0 °F 60% 30.20 in 10.0 mi SW 15.0 mph - N/A   Clear
4:53 AM 41.0 °F 34.3 °F 28.4 °F 61% 30.25 in 10.0 mi WSW 11.5 mph - N/A   Clear
5:53 AM 41.0 °F 34.3 °F 28.0 °F 60% 30.21 in 10.0 mi SW 11.5 mph - N/A   Clear
6:53 AM 42.1 °F 35.2 °F 28.0 °F 58% 30.20 in 10.0 mi SW 12.7 mph - N/A   Clear
7:53 AM 45.0 °F 37.9 °F 28.0 °F 52% 30.21 in 10.0 mi SSW 16.1 mph - N/A   Clear
8:53 AM 46.9 °F - 28.9 °F 50% 30.22 in 10.0 mi SSW 16.1 mph - N/A   Clear
9:53 AM 50.0 °F - 28.9 °F 44% 30.22 in 10.0 mi SW 19.6 mph - N/A   Clear
10:53 AM 52.0 °F - 28.9 °F 41% 30.19 in 10.0 mi SW 21.9 mph 29.9 mph N/A   Clear
11:53 AM 54.0 °F - 28.9 °F 38% 30.16 in 10.0 mi SSW 24.2 mph 31.1 mph N/A   Clear
12:53 PM 57.9 °F - 28.9 °F 33% 30.07 in 10.0 mi SSW 23.0 mph 28.8 mph N/A   Clear
1:53 PM 62.1 °F - 28.0 °F 28% 30.05 in 10.0 mi West 19.6 mph 23.0 mph N/A   Clear
2:00 PM 62.6 °F - 28.4 °F 27% 30.13 in 10.0 mi West 19.6 mph - N/A   Clear
2:53 PM 64.0 °F - 27.0 °F 25% 30.04 in 10.0 mi West 23.0 mph 28.8 mph N/A   Clear
3:53 PM 60.1 °F - 28.0 °F 30% 30.05 in 10.0 mi West 18.4 mph - N/A   Clear
4:53 PM 54.0 °F - 28.0 °F 37% 30.07 in 10.0 mi West 12.7 mph - N/A   Clear
5:53 PM 48.0 °F - 28.0 °F 46% 30.12 in 10.0 mi West 10.4 mph - N/A   Clear
6:53 PM 50.0 °F - 28.9 °F 44% 30.12 in 10.0 mi West 12.7 mph - N/A   Clear
7:53 PM 46.0 °F 42.5 °F 28.9 °F 51% 30.13 in 10.0 mi SW 6.9 mph - N/A   Clear
8:53 PM 48.9 °F - 28.9 °F 46% 30.12 in 10.0 mi SW 12.7 mph - N/A   Clear
9:53 PM 46.9 °F - 28.0 °F 48% 30.12 in 10.0 mi WSW 8.1 mph - N/A   Clear
10:53 PM 46.9 °F - 28.0 °F 48% 30.12 in 10.0 mi SSW 6.9 mph - N/A   Clear
11:53 PM 46.0 °F 41.0 °F 28.0 °F 50% 30.13 in 10.0 mi WSW 10.4 mph - N/A   Clear